King Cove AP, King Cove, AK, AK

9:31 AM AKDT on May 26, 2017 (GMT -0800)
King Cove AP, King Cove, AK

Weather History for PAVC - February, 2014

Change the Weather History Date:

Tuesday, February 25, 2014

  Actual Average (PACD) Record (PACD)
Temperature  
Mean Temperature 34 °F -  
Max Temperature 37 °F 33 °F 46 °F (2003)
Min Temperature 32 °F 22 °F -3 °F (1976)
Degree Days  
Heating Degree Days 30    
Moisture  
Dew Point 30 °F    
Average Humidity 82    
Maximum Humidity 96    
Minimum Humidity 70    
Precipitation  
Precipitation 0.24 in - - ()
Sea Level Pressure  
Sea Level Pressure 29.42 in    
Wind  
Wind Speed 15 mph (East)    
Max Wind Speed 26 mph    
Max Gust Speed 37 mph    
Visibility 7 miles    
Events Rain , Snow    
Averages and records for this station are not official NWS values.
T = Trace of Precipitation, MM = Missing Value Source: NWS Daily Summary

Daily Weather History Graph

Daily Weather History Graph

Search for Another Location

Airport or City:

Trip Planner

Search our weather history database for the weather conditions in past years. The results will help you decide how hot, cold, wet, or windy it might be!

Date:

Astronomy

Feb. 25, 2014 Rise Set
Actual Time 8:48 AM AKST 7:16 PM AKST
Civil Twilight 8:11 AM AKST 7:53 PM AKST
Nautical Twilight 7:29 AM AKST 8:35 PM AKST
Astronomical Twilight 6:47 AM AKST 9:18 PM AKST
Moon 6:22 AM AKST (2/25) 3:09 PM AKST (2/25)
Length of Visible Light 11h 42m
Length of Day
10h 28m
Waning Crescent, 17% of the Moon is Illuminated
Feb 25
Waning Crescent
Feb 28
New
Mar 8
First Quarter
Mar 16
Full
Mar 23
Last Quarter

Hourly Weather History & Observations

Time (AKST) Temp. Windchill Dew Point Humidity Pressure Visibility Wind Dir Wind Speed Gust Speed Precip Events Conditions
12:56 AM 34.9 °F 25.7 °F 27.1 °F 73% 29.72 in 10.0 mi ENE 13.8 mph - N/A   Overcast
1:33 AM 35.6 °F 25.9 °F 26.6 °F 70% 29.71 in 10.0 mi ENE 16.1 mph 21.9 mph N/A   Mostly Cloudy
1:56 AM 34.9 °F 26.6 °F 28.0 °F 76% 29.72 in 10.0 mi ENE 11.5 mph - N/A   Overcast
3:56 AM 34.9 °F 25.3 °F 27.1 °F 73% 29.71 in 10.0 mi ENE 15.0 mph - N/A   Overcast
4:56 AM 34.9 °F 25.3 °F 28.0 °F 76% 29.70 in 10.0 mi ENE 15.0 mph - N/A   Overcast
5:31 AM 35.6 °F 25.5 °F 28.4 °F 75% 29.69 in 10.0 mi East 17.3 mph - N/A   Overcast
5:56 AM 34.9 °F 24.2 °F 28.0 °F 76% 29.69 in 10.0 mi East 18.4 mph 24.2 mph N/A   Mostly Cloudy
6:56 AM 34.9 °F 24.2 °F 27.1 °F 73% 29.69 in 10.0 mi ENE 18.4 mph - N/A   Mostly Cloudy
7:56 AM 34.9 °F 24.2 °F 27.1 °F 73% 29.67 in 10.0 mi East 18.4 mph - N/A   Overcast
8:56 AM 35.6 °F 23.7 °F 28.4 °F 75% 29.64 in 10.0 mi East 24.2 mph 28.8 mph N/A   Overcast
9:38 AM 35.6 °F 25.2 °F 28.4 °F 75% 29.64 in 10.0 mi ENE 18.4 mph 27.6 mph 0.00 in   Overcast
9:56 AM 36.0 °F 26.0 °F 29.1 °F 76% 29.63 in 10.0 mi East 17.3 mph 24.2 mph 0.00 in   Overcast
10:56 AM 36.9 °F 28.2 °F 28.0 °F 70% 29.62 in 10.0 mi East 13.8 mph - 0.00 in   Overcast
11:56 AM 37.4 °F 26.9 °F 30.2 °F 75% 29.58 in 10.0 mi ENE 20.7 mph 27.6 mph N/A Rain Light Rain
12:56 PM 36.0 °F 28.0 °F 32.0 °F 86% 29.55 in 10.0 mi East 11.5 mph 20.7 mph 0.00 in Snow Light Snow
1:56 PM 36.9 °F 28.2 °F 32.0 °F 83% 29.48 in 8.0 mi ENE 13.8 mph - 0.01 in Snow Light Snow
2:56 PM 37.4 °F 30.8 °F 32.0 °F 81% 29.43 in 6.0 mi ESE 9.2 mph - N/A Snow Light Snow
3:56 PM 36.9 °F 26.8 °F 32.0 °F 83% 29.38 in 5.0 mi East 18.4 mph 24.2 mph 0.02 in Snow Light Snow
4:56 PM 36.9 °F 27.8 °F 32.0 °F 83% 29.35 in 4.0 mi East 15.0 mph 27.6 mph 0.01 in Snow Light Snow
5:56 PM 35.6 °F 29.9 °F 33.8 °F 93% 29.28 in 9.0 mi ESE 6.9 mph - N/A Snow Light Snow
6:22 PM 35.6 °F 29.2 °F 32.0 °F 87% 29.28 in 4.0 mi ESE 8.1 mph - 0.01 in Snow Light Snow
6:27 PM 33.8 °F 27.7 °F 32.0 °F 93% 29.28 in 2.5 mi ESE 6.9 mph - 0.01 in Snow Light Snow
6:56 PM 32.9 °F - 32.0 °F 96% 29.26 in 3.0 mi Calm Calm - 0.03 in Snow Light Snow
7:01 PM 33.8 °F - 32.0 °F 93% 29.26 in 2.5 mi Calm Calm - 0.00 in Snow Light Snow
7:06 PM 33.8 °F 30.8 °F 32.0 °F 93% 29.25 in 3.0 mi Variable 3.5 mph - 0.00 in Snow Light Snow
7:15 PM 33.8 °F 25.3 °F 32.0 °F 93% 29.24 in 4.0 mi East 11.5 mph 16.1 mph 0.00 in Snow Light Snow
7:56 PM 36.0 °F 24.4 °F 31.1 °F 82% 29.21 in 8.0 mi East 23.0 mph 35.7 mph 0.01 in Snow Light Snow
8:56 PM 37.4 °F 26.6 °F 32.0 °F 81% 29.16 in 7.0 mi East 21.9 mph 35.7 mph N/A Snow Light Snow
9:29 PM 35.6 °F 24.8 °F 32.0 °F 87% 29.15 in 5.0 mi East 19.6 mph 29.9 mph 0.01 in Snow Light Snow
9:44 PM 35.6 °F 25.2 °F 32.0 °F 87% 29.14 in 5.0 mi East 18.4 mph 27.6 mph 0.02 in Snow Light Snow
9:56 PM 36.0 °F 25.3 °F 32.0 °F 86% 29.15 in 3.0 mi East 19.6 mph 31.1 mph 0.05 in Snow Light Snow
10:30 PM 35.6 °F 23.2 °F 32.0 °F 87% 29.12 in 2.5 mi ENE 26.5 mph 32.2 mph 0.05 in Snow Light Snow
10:56 PM 36.0 °F 23.9 °F 32.0 °F 86% 29.12 in 2.0 mi East 25.3 mph 35.7 mph 0.11 in Snow Light Snow
11:12 PM 35.6 °F 23.4 °F 32.0 °F 87% 29.11 in 3.0 mi ENE 25.3 mph 36.8 mph 0.03 in Snow Light Snow
11:56 PM 37.4 °F 25.9 °F 32.0 °F 81% 29.10 in 2.5 mi ENE 25.3 mph 31.1 mph N/A Snow Light Snow